Zurück zum Katalog

STARLINK-35211

AktivKommunikationVLEO
NORAD 65757·PAYLOAD·🇺🇸 United States

Gestartet Sep 25, 2025 von Cape Canaveral Space Force Station

Loading…

Nächste Überflüge (nächste 24 Stunden)

TLE

AktuellSource: CelesTrak SupGP

Epoche: Sep 14, 2026, 21:15 UTC

1 65757C 25216Z   26257.88590278 -.00031970  00000+0 -94429-3 0  2574
2 65757  53.1584 171.6890 0001294  88.3850 297.1148 15.34415232    11

Verfolge STARLINK-35211 in Echtzeit mit AllMySat

Download on the App Store